This is the latest recevied weather packets stored in our database for station/object KB0Y. If no packets are shown the sender has not sent any weather packets the latest 10 day(s).
| Time | Temp. | Humidity | Pressure | Rain* | Wind** | Luminosity | Snow |
|---|---|---|---|---|---|---|---|
| 1777510914 | 25° C | 78% | 1015.9 hPa | 0 mm | - | 0 W/m² | - |
| 1777510611 | 25° C | 78% | 1015.6 hPa | 0 mm | - | 0 W/m² | - |
| 1777510307 | 25° C | 77% | 1015.6 hPa | 0 mm | - | 0 W/m² | - |
| 1777510004 | 25.56° C | 77% | 1015.6 hPa | 0 mm | - | 0 W/m² | - |
| 1777509699 | 25.56° C | 77% | 1015.6 hPa | 0 mm | - | 0 W/m² | - |
| 1777509396 | 25.56° C | 76% | 1015.6 hPa | 0 mm | - | 0 W/m² | - |
| 1777509093 | 25.56° C | 76% | 1015.6 hPa | 0 mm | - | 0 W/m² | - |
| 1777508790 | 25.56° C | 76% | 1015.6 hPa | 0 mm | - | 0 W/m² | - |
| 1777508487 | 26.11° C | 76% | 1015.2 hPa | 0 mm | - | 0 W/m² | - |
| 1777508185 | 26.11° C | 75% | 1015.2 hPa | 0 mm | - | 0 W/m² | - |
| 1777507881 | 26.11° C | 74% | 1014.9 hPa | 0 mm | - | 0 W/m² | - |
| 1777507578 | 26.67° C | 74% | 1015.2 hPa | 0 mm | - | 0 W/m² | - |
| 1777507275 | 26.67° C | 73% | 1014.9 hPa | 0 mm | - | 0 W/m² | - |
| 1777506973 | 26.67° C | 72% | 1014.9 hPa | 0 mm | - | 2 W/m² | - |
| 1777506670 | 27.22° C | 71% | 1014.9 hPa | 0 mm | - | 5 W/m² | - |
| 1777506366 | 27.22° C | 71% | 1014.5 hPa | 0 mm | - | 7 W/m² | - |
| 1777506062 | 27.78° C | 70% | 1014.9 hPa | 0 mm | - | 9 W/m² | - |
| 1777505757 | 28.33° C | 68% | 1014.5 hPa | 0 mm | - | 11 W/m² | - |
| 1777505455 | 28.33° C | 67% | 1014.5 hPa | 0 mm | - | 19 W/m² | - |
| 1777505151 | 28.89° C | 66% | 1014.5 hPa | 0 mm | - | 28 W/m² | - |
| 1777504848 | 28.89° C | 65% | 1014.5 hPa | 0 mm | - | 41 W/m² | - |
| 1777504545 | 29.44° C | 64% | 1014.2 hPa | 0 mm | - | 56 W/m² | - |
| 1777504241 | 29.44° C | 63% | 1014.2 hPa | 0 mm | - | 94 W/m² | - |
| 1777503937 | 30° C | 62% | 1013.9 hPa | 0 mm | - | 157 W/m² | - |
| 1777503633 | 30.56° C | 61% | 1013.9 hPa | 0 mm | - | 198 W/m² | - |
* Rain latest hour (hover to see other rain measurements)
** Current wind speed in m/s (hover to see current wind gust speed)